Location: Unspecified
(42.9300°N, 71.1866°W)
Time: 11:33:39
(UTC-05:00)

Envisat - Visible Passes

Search period start: 03 March 2015 00:00
Search period end: 13 March 2015 01:00
Orbit: 765 x 766 km, 98.3° (Epoch: 03 March)

Date Brightness Start Highest point End Pass type
(mag) Time Alt. Az. Time Alt. Az. Time Alt. Az.
03 Mar 5.1 19:22:47 12° NE 19:22:47 12° NE 19:23:24 10° NNE visible
03 Mar 5.3 21:02:59 18° NNW 21:02:59 18° NNW 21:04:16 10° NNW visible
04 Mar 4.9 20:25:50 20° N 20:25:50 20° N 20:27:30 10° N visible
05 Mar 4.9 19:48:40 17° NNE 19:48:40 17° NNE 19:50:15 10° NNE visible
05 Mar 5.6 21:28:52 16° NNW 21:28:52 16° NNW 21:29:55 10° NNW visible
06 Mar 5.1 19:11:31 10° NE 19:11:31 10° NE 19:11:45 10° NE visible
06 Mar 5.0 20:51:43 22° N 20:51:43 22° N 20:53:29 10° NNW visible
07 Mar 4.7 20:14:34 22° NNE 20:14:34 22° NNE 20:16:36 10° N visible
07 Mar 5.9 21:54:46 12° NW 21:54:46 12° NW 21:55:17 10° NW visible
08 Mar 4.8 20:37:24 16° NE 20:37:24 16° NE 20:39:09 10° NNE visible
08 Mar 5.2 22:17:36 21° NNW 22:17:36 21° NNW 22:19:15 10° NNW visible
09 Mar 4.6 21:40:27 26° N 21:40:27 26° N 21:42:40 10° N visible
10 Mar 4.5 21:03:18 23° NNE 21:03:18 23° NNE 21:05:39 10° N visible
10 Mar 5.6 22:43:30 16° NW 22:43:30 16° NW 22:44:44 10° NNW visible
11 Mar 4.9 20:26:09 14° NE 20:26:09 14° NE 20:27:55 10° NNE visible
11 Mar 4.8 22:06:20 26° NNW 22:06:20 26° NNW 22:08:31 10° NNW visible
12 Mar 4.4 21:29:11 29° N 21:29:11 29° N 21:31:49 10° N visible
12 Mar 5.9 23:09:24 12° NW 23:09:24 12° NW 23:09:49 10° NW visible
